Regional Weather Roundup
Issued by NWS

Home | Current Version | Previous Version | Graphics & Text | Print | Product List | Glossary On
Versions: 1 2 3 4 5 6 7 8 9 10 11 12 13 14 15 16 17 18 19 20 21 22 23 24 25 26 27 28 29 30 31 32 33 34 35 36 37 38 39 40 41 42 43 44 45 46 47 48 49 50
000
ASUS43 KLMK 311410
RWRKY
KENTUCKY REGIONAL WEATHER ROUNDUP
NATIONAL WEATHER SERVICE LOUISVILLE KY
1000 AM EDT MON AUG 31 2015

NOTE "FAIR" INDICATES FEW OR NO CLOUDS BELOW 12,000 FEET
WITH NO SIGNIFICANT WEATHER AND/OR OBSTRUCTIONS TO VISIBILITY.

KYZ001>023-026-027-061>063-070>075-311500-
WESTERN AND SOUTH CENTRAL KENTUCKY

CITY           SKY/WX    TMP DP  RH WIND       PRES   REMARKS
PADUCAH        SUNNY     75  67  76 VRB3      30.12S
HENDERSON      SUNNY     75  66  73 SW6       30.12S
OWENSBORO      SUNNY     75  69  81 S7        30.15R
HOPKINSVILLE   SUNNY     75  67  76 S5        30.14S
BOWLING GREEN  SUNNY     74  66  76 CALM      30.16R
GLASGOW        SUNNY     73  65  75 CALM      30.16S
$$

KYZ024-025-028>034-038-045-046-053-311500-
NORTH CENTRAL KENTUCKY

CITY           SKY/WX    TMP DP  RH WIND       PRES   REMARKS
LOUISVILLE/SDF MOSUNNY   77  65  66 W6        30.15R
LOUISVILLE/LOU SUNNY     75  65  70 W6        30.16R
FORT KNOX      SUNNY     74  65  72 S5        30.14S
$$

KYZ035>037-039>044-047>052-055>060-089>105-311500-
NORTHEAST KENTUCKY

CITY           SKY/WX    TMP DP  RH WIND       PRES   REMARKS
LEXINGTON      MOSUNNY   77  64  64 W6        30.17R
COVINGTON      MOSUNNY   76  67  73 W8        30.15R
FRANKFORT      MOSUNNY   74  65  73 SW6       30.16R
$$

KYZ054-064>069-076>088-106>120-311500-
SOUTHEAST KENTUCKY

CITY           SKY/WX    TMP DP  RH WIND       PRES   REMARKS
JACKSON        CLOUDY    73  65  75 W3        30.19R
LONDON         SUNNY     74  63  68 VRB3      30.18R
SOMERSET       CLOUDY    66  66 100 CALM      30.19R FOG
MIDDLESBORO    SUNNY     69  64  83 CALM      30.18S
MONTICELLO     SUNNY     75  69  81 CALM      30.20R
$$




USA.gov is the U.S. government's official web portal to all federal, state and local government web resources and services.